Time,TemperatureF,DewpointF,PressureIn,WindDirection,WindDirectionDegrees,WindSpeedMPH,WindSpeedGustMPH,Humidity,HourlyPrecipIn,Conditions,Clouds,dailyrainin,SoftwareType,DateUTC
2013-03-06 00:02:00,34.0,25.0,30.09,West,267,9.0,18.0,69,0.00,,,0.62,,2013-03-06 06:02:00,
2013-03-06 00:11:00,34.0,25.0,30.09,West,267,9.0,18.0,69,0.00,,,0.62,,2013-03-06 06:11:00,
2013-03-06 00:22:00,34.0,25.0,30.09,WSW,253,10.0,17.0,69,0.00,,,0.62,,2013-03-06 06:22:00,
2013-03-06 00:32:00,34.0,25.0,30.09,WSW,253,10.0,17.0,69,0.00,,,0.62,,2013-03-06 06:32:00,
2013-03-06 00:42:00,34.0,25.0,30.09,WSW,253,10.0,17.0,69,0.00,,,0.62,,2013-03-06 06:42:00,
2013-03-06 00:52:00,34.0,25.0,30.09,WSW,253,10.0,17.0,69,0.00,,,0.62,,2013-03-06 06:52:00,
2013-03-06 03:52:00,33.0,25.0,30.13,WSW,239,9.0,13.0,73,0.00,,,0.36,,2013-03-06 09:52:00,
2013-03-06 04:01:00,34.0,25.0,30.13,West,275,12.0,19.0,69,0.00,,,0.36,,2013-03-06 10:01:00,
2013-03-06 04:11:00,34.0,25.0,30.13,West,275,12.0,19.0,69,0.00,,,0.36,,2013-03-06 10:11:00,
2013-03-06 04:21:00,34.0,25.0,30.14,West,278,9.0,17.0,69,0.00,,,0.36,,2013-03-06 10:21:00,
2013-03-06 04:32:00,34.0,25.0,30.14,West,261,6.0,18.0,70,0.00,,,0.28,,2013-03-06 10:32:00,
2013-03-06 04:42:00,34.0,25.0,30.14,West,261,6.0,18.0,70,0.00,,,0.28,,2013-03-06 10:42:00,
2013-03-06 04:52:00,34.0,25.0,30.15,WSW,251,8.0,16.0,70,0.00,,,0.28,,2013-03-06 10:52:00,
2013-03-06 05:02:00,33.0,25.0,30.16,West,260,6.0,15.0,71,0.00,,,0.28,,2013-03-06 11:02:00,
2013-03-06 05:11:00,33.0,25.0,30.16,West,260,6.0,15.0,71,0.00,,,0.28,,2013-03-06 11:11:00,
2013-03-06 05:22:00,33.0,25.0,30.16,West,260,10.0,20.0,72,0.00,,,0.28,,2013-03-06 11:22:00,
2013-03-06 05:32:00,33.0,25.0,30.18,West,261,10.0,13.0,71,0.00,,,0.20,,2013-03-06 11:32:00,
2013-03-06 05:42:00,33.0,25.0,30.18,West,261,10.0,13.0,71,0.00,,,0.20,,2013-03-06 11:42:00,
2013-03-06 05:52:00,33.0,24.0,30.18,West,264,10.0,13.0,69,0.00,,,0.20,,2013-03-06 11:52:00,
2013-03-06 06:02:00,34.0,25.0,30.19,West,260,6.0,16.0,69,0.00,,,0.20,,2013-03-06 12:02:00,
2013-03-06 06:11:00,34.0,25.0,30.19,West,260,6.0,16.0,69,0.00,,,0.20,,2013-03-06 12:11:00,
2013-03-06 06:21:00,33.0,24.0,30.20,West,270,9.0,12.0,69,0.00,,,0.20,,2013-03-06 12:21:00,
2013-03-06 06:32:00,33.0,24.0,30.21,West,277,7.0,12.0,69,0.00,,,0.15,,2013-03-06 12:32:00,
2013-03-06 06:42:00,33.0,24.0,30.21,West,277,7.0,12.0,69,0.00,,,0.15,,2013-03-06 12:42:00,
2013-03-06 06:52:00,33.0,24.0,30.22,West,263,9.0,17.0,69,0.00,,,0.15,,2013-03-06 12:52:00,
2013-03-06 07:02:00,33.0,24.0,30.22,West,268,9.0,14.0,69,0.00,,,0.15,,2013-03-06 13:02:00,
2013-03-06 07:12:00,33.0,24.0,30.22,West,268,9.0,14.0,69,0.00,,,0.15,,2013-03-06 13:12:00,
2013-03-06 07:22:00,33.0,24.0,30.23,WSW,253,7.0,11.0,69,0.00,,,0.15,,2013-03-06 13:22:00,
2013-03-06 07:32:00,34.0,25.0,30.24,WSW,258,11.0,14.0,69,0.00,,,0.10,,2013-03-06 13:32:00,
2013-03-06 07:42:00,34.0,25.0,30.24,WSW,258,11.0,14.0,69,0.00,,,0.10,,2013-03-06 13:42:00,
2013-03-06 07:52:00,34.0,25.0,30.25,NW,308,9.0,16.0,68,0.00,,,0.10,,2013-03-06 13:52:00,
2013-03-06 08:01:00,34.0,25.0,30.25,West,264,6.0,13.0,69,0.00,,,0.10,,2013-03-06 14:01:00,
2013-03-06 08:11:00,34.0,25.0,30.25,West,264,6.0,13.0,69,0.00,,,0.10,,2013-03-06 14:11:00,
2013-03-06 08:22:00,34.0,24.0,30.27,West,275,10.0,19.0,67,0.00,,,0.10,,2013-03-06 14:22:00,
2013-03-06 08:32:00,34.0,25.0,30.27,WSW,250,7.0,16.0,68,0.00,,,0.06,,2013-03-06 14:32:00,
2013-03-06 08:42:00,34.0,25.0,30.27,WSW,250,7.0,16.0,68,0.00,,,0.06,,2013-03-06 14:42:00,
2013-03-06 08:52:00,35.0,26.0,30.28,WSW,250,8.0,14.0,69,0.00,,,0.06,,2013-03-06 14:52:00,
2013-03-06 09:02:00,35.0,26.0,30.29,WSW,251,8.0,12.0,69,0.00,,,0.06,,2013-03-06 15:02:00,
2013-03-06 09:11:00,35.0,26.0,30.29,WSW,251,8.0,12.0,69,0.00,,,0.06,,2013-03-06 15:11:00,
2013-03-06 09:21:00,35.0,26.0,30.29,NW,305,6.0,17.0,69,0.00,,,0.06,,2013-03-06 15:21:00,
2013-03-06 09:32:00,36.0,27.0,30.30,West,260,8.0,12.0,69,0.00,,,0.03,,2013-03-06 15:32:00,
2013-03-06 09:42:00,36.0,27.0,30.30,West,260,8.0,12.0,69,0.00,,,0.03,,2013-03-06 15:42:00,
2013-03-06 09:52:00,36.0,26.0,30.30,West,264,8.0,14.0,68,0.00,,,0.03,,2013-03-06 15:52:00,
2013-03-06 10:01:00,35.0,26.0,30.30,WSW,251,9.0,16.0,68,0.00,,,0.03,,2013-03-06 16:01:00,
2013-03-06 10:11:00,35.0,26.0,30.30,WSW,251,9.0,16.0,68,0.00,,,0.03,,2013-03-06 16:11:00,
2013-03-06 10:21:00,36.0,27.0,30.30,WNW,296,5.0,13.0,69,0.00,,,0.03,,2013-03-06 16:21:00,
2013-03-06 10:32:00,37.0,27.0,30.30,NW,306,7.0,17.0,68,0.00,,,0.03,,2013-03-06 16:32:00,
2013-03-06 10:42:00,37.0,27.0,30.30,NW,306,7.0,17.0,68,0.00,,,0.03,,2013-03-06 16:42:00,
2013-03-06 10:52:00,37.0,26.0,30.31,West,274,10.0,16.0,65,0.00,,,0.03,,2013-03-06 16:52:00,
2013-03-06 11:01:00,39.0,28.0,30.31,WSW,258,9.0,16.0,64,0.00,,,0.03,,2013-03-06 17:01:00,
2013-03-06 11:11:00,39.0,28.0,30.31,WSW,258,9.0,16.0,64,0.00,,,0.03,,2013-03-06 17:11:00,
2013-03-06 11:21:00,38.0,27.0,30.32,West,281,6.0,14.0,64,0.00,,,0.03,,2013-03-06 17:21:00,
2013-03-06 11:32:00,39.0,27.0,30.32,WSW,244,8.0,13.0,62,0.00,,,0.02,,2013-03-06 17:32:00,
2013-03-06 11:42:00,39.0,27.0,30.32,WSW,244,8.0,13.0,62,0.00,,,0.02,,2013-03-06 17:42:00,
2013-03-06 11:52:00,39.0,27.0,30.31,NW,305,8.0,19.0,61,0.00,,,0.02,,2013-03-06 17:52:00,
2013-03-06 12:02:00,38.0,27.0,30.32,West,281,10.0,16.0,64,0.00,,,0.02,,2013-03-06 18:02:00,
2013-03-06 12:28:00,39.0,28.0,30.32,WSW,248,4.0,13.0,64,0.00,,,0.02,,2013-03-06 18:28:00,
2013-03-06 12:42:00,39.0,27.0,30.31,WNW,285,9.0,17.0,62,0.00,,,0.01,,2013-03-06 18:42:00,
2013-03-06 12:52:00,40.0,28.0,30.31,WNW,289,7.0,12.0,61,0.00,,,0.01,,2013-03-06 18:52:00,
2013-03-06 13:02:00,39.0,27.0,30.31,WSW,250,7.0,14.0,61,0.00,,,0.01,,2013-03-06 19:02:00,
2013-03-06 13:11:00,39.0,27.0,30.31,WSW,250,7.0,14.0,61,0.00,,,0.01,,2013-03-06 19:11:00,
2013-03-06 13:22:00,38.0,26.0,30.31,West,267,8.0,14.0,62,0.00,,,0.01,,2013-03-06 19:22:00,
2013-03-06 13:32:00,39.0,27.0,30.31,WNW,284,8.0,13.0,62,0.00,,,0.00,,2013-03-06 19:32:00,
2013-03-06 13:43:00,39.0,27.0,30.31,WNW,284,8.0,13.0,62,0.00,,,0.00,,2013-03-06 19:43:00,
2013-03-06 13:53:00,40.0,28.0,30.31,WNW,289,8.0,11.0,61,0.00,,,0.00,,2013-03-06 19:53:00,
2013-03-06 14:01:00,39.0,26.0,30.30,West,270,7.0,12.0,60,0.00,,,0.00,,2013-03-06 20:01:00,
2013-03-06 14:12:00,39.0,26.0,30.30,West,270,7.0,12.0,60,0.00,,,0.00,,2013-03-06 20:12:00,
2013-03-06 14:22:00,40.0,27.0,30.30,WNW,295,8.0,16.0,60,0.00,,,0.00,,2013-03-06 20:22:00,
2013-03-06 14:32:00,41.0,29.0,30.30,West,277,7.0,14.0,61,0.00,,,0.00,,2013-03-06 20:32:00,
2013-03-06 14:42:00,41.0,29.0,30.30,West,277,7.0,14.0,61,0.00,,,0.00,,2013-03-06 20:42:00,
2013-03-06 14:53:00,41.0,27.0,30.30,West,271,6.0,14.0,58,0.00,,,0.00,,2013-03-06 20:53:00,
2013-03-06 15:02:00,41.0,28.0,30.30,WSW,244,6.0,12.0,59,0.00,,,0.00,,2013-03-06 21:02:00,
2013-03-06 15:11:00,41.0,28.0,30.30,WSW,244,6.0,12.0,59,0.00,,,0.00,,2013-03-06 21:11:00,
2013-03-06 15:22:00,41.0,27.0,30.30,NW,312,3.0,8.0,58,0.00,,,0.00,,2013-03-06 21:22:00,
2013-03-06 15:32:00,41.0,27.0,30.30,NW,315,2.0,12.0,58,0.00,,,0.00,,2013-03-06 21:32:00,
2013-03-06 15:42:00,41.0,27.0,30.30,NW,315,2.0,12.0,58,0.00,,,0.00,,2013-03-06 21:42:00,
2013-03-06 15:52:00,42.0,28.0,30.30,SW,234,6.0,12.0,57,0.00,,,0.00,,2013-03-06 21:52:00,
2013-03-06 16:01:00,42.0,27.0,30.30,SW,226,7.0,8.0,56,0.00,,,0.00,,2013-03-06 22:01:00,
2013-03-06 16:11:00,42.0,27.0,30.30,SW,226,7.0,8.0,56,0.00,,,0.00,,2013-03-06 22:11:00,
2013-03-06 16:22:00,41.0,27.0,30.31,SW,233,4.0,8.0,57,0.00,,,0.00,,2013-03-06 22:22:00,
2013-03-06 16:32:00,41.0,27.0,30.31,West,265,3.0,9.0,58,0.00,,,0.00,,2013-03-06 22:32:00,
2013-03-06 16:41:00,41.0,27.0,30.31,West,265,3.0,9.0,58,0.00,,,0.00,,2013-03-06 22:41:00,
2013-03-06 16:52:00,41.0,27.0,30.31,West,265,3.0,9.0,58,0.00,,,0.00,,2013-03-06 22:52:00,
2013-03-06 17:01:00,41.0,27.0,30.31,West,265,3.0,9.0,58,0.00,,,0.00,,2013-03-06 23:01:00,
2013-03-06 17:11:00,41.0,27.0,30.31,West,265,3.0,9.0,58,0.00,,,0.00,,2013-03-06 23:11:00,
2013-03-06 19:01:00,36.0,29.0,30.32,NW,313,0.0,0.0,77,0.00,,,0.00,,2013-03-07 01:01:00,
2013-03-06 19:11:00,36.0,29.0,30.32,NW,313,0.0,0.0,77,0.00,,,0.00,,2013-03-07 01:11:00,
2013-03-06 19:21:00,34.0,28.0,30.33,NW,313,0.0,0.0,80,0.00,,,0.00,,2013-03-07 01:21:00,
2013-03-06 19:32:00,33.0,28.0,30.32,NW,313,0.0,1.0,81,0.00,,,0.00,,2013-03-07 01:32:00,
2013-03-06 19:41:00,33.0,28.0,30.32,NW,313,0.0,1.0,81,0.00,,,0.00,,2013-03-07 01:41:00,
2013-03-06 19:52:00,32.0,27.0,30.32,NW,313,0.0,0.0,83,0.00,,,0.00,,2013-03-07 01:52:00,
2013-03-06 20:01:00,32.0,28.0,30.32,NW,313,0.0,0.0,84,0.00,,,0.00,,2013-03-07 02:01:00,
2013-03-06 20:11:00,32.0,28.0,30.32,NW,313,0.0,0.0,84,0.00,,,0.00,,2013-03-07 02:11:00,
2013-03-06 20:21:00,32.0,28.0,30.33,NW,313,0.0,0.0,86,0.00,,,0.00,,2013-03-07 02:21:00,
2013-03-06 20:32:00,32.0,29.0,30.33,NW,313,0.0,0.0,87,0.00,,,0.00,,2013-03-07 02:32:00,
2013-03-06 20:41:00,32.0,29.0,30.33,NW,313,0.0,0.0,87,0.00,,,0.00,,2013-03-07 02:41:00,
2013-03-06 20:52:00,32.0,29.0,30.33,NW,313,0.0,0.0,87,0.00,,,0.00,,2013-03-07 02:52:00,
2013-03-06 21:02:00,34.0,29.0,30.33,NW,313,0.0,0.0,82,0.00,,,0.00,,2013-03-07 03:02:00,
2013-03-06 21:11:00,34.0,29.0,30.33,NW,313,0.0,0.0,82,0.00,,,0.00,,2013-03-07 03:11:00,
2013-03-06 21:21:00,33.0,28.0,30.34,NW,313,0.0,0.0,82,0.00,,,0.00,,2013-03-07 03:21:00,
2013-03-06 21:32:00,33.0,29.0,30.34,NW,313,0.0,0.0,84,0.00,,,0.00,,2013-03-07 03:32:00,
2013-03-06 21:42:00,33.0,29.0,30.34,NW,313,0.0,0.0,84,0.00,,,0.00,,2013-03-07 03:42:00,
2013-03-06 21:52:00,32.0,28.0,30.34,NW,313,0.0,0.0,86,0.00,,,0.00,,2013-03-07 03:52:00,
2013-03-06 22:01:00,32.0,29.0,30.34,NW,313,0.0,0.0,88,0.00,,,0.00,,2013-03-07 04:01:00,
2013-03-06 22:11:00,32.0,29.0,30.34,NW,313,0.0,0.0,88,0.00,,,0.00,,2013-03-07 04:11:00,
2013-03-06 22:21:00,32.0,29.0,30.34,NW,313,0.0,0.0,89,0.00,,,0.00,,2013-03-07 04:21:00,
2013-03-06 22:31:00,32.0,29.0,30.33,NW,313,0.0,0.0,89,0.00,,,0.00,,2013-03-07 04:31:00,
2013-03-06 22:42:00,32.0,29.0,30.33,NW,313,0.0,0.0,89,0.00,,,0.00,,2013-03-07 04:42:00,
2013-03-06 22:52:00,32.0,29.0,30.33,NW,313,0.0,0.0,90,0.00,,,0.00,,2013-03-07 04:52:00,
2013-03-06 23:01:00,32.0,30.0,30.32,NW,313,0.0,0.0,91,0.00,,,0.00,,2013-03-07 05:01:00,
2013-03-06 23:12:00,32.0,30.0,30.32,NW,313,0.0,0.0,91,0.00,,,0.00,,2013-03-07 05:12:00,
2013-03-06 23:22:00,33.0,30.0,30.33,NW,313,0.0,1.0,90,0.00,,,0.00,,2013-03-07 05:22:00,
2013-03-06 23:32:00,34.0,30.0,30.33,WNW,298,1.0,5.0,84,0.00,,,0.00,,2013-03-07 05:32:00,
2013-03-06 23:42:00,34.0,30.0,30.33,WNW,298,1.0,5.0,84,0.00,,,0.00,,2013-03-07 05:42:00,
2013-03-06 23:52:00,35.0,29.0,30.35,West,268,0.0,4.0,77,0.00,,,0.00,,2013-03-07 05:52:00,